Location: Biltmore Gardens
(41.6070°N, 83.4666°W)
Time: 14:25:26
(UTC+00:00)

Resurs 1-4 Rocket - Pass Details

Date: 14 July 2020
Orbit: 800 x 814 km, 98.6° (Epoch: 04 August)

Event Time Altitude Azimuth Distance (km) Brightness Sun altitude
Rises 08:07:13 0° 3° (N) 3,345 6.3 -18.2°
Reaches altitude 10° 08:09:47 10° 354° (N) 2,407 5.2 -17.9°
Maximum altitude 08:14:23 31° 294° (WNW) 1,397 3.2 -17.4°
Enters shadow 08:16:39 22° 253° (WSW) 1,694 3.3 -17.1°
